Time,TemperatureF,DewpointF,PressureIn,WindDirection,WindDirectionDegrees,WindSpeedMPH,WindSpeedGustMPH,Humidity,HourlyPrecipIn,Conditions,Clouds,dailyrainin,SoftwareType,DateUTC
2013-07-08 00:00:00,53.3,46.6,29.85,NNW,327,4.0,19.0,78,0.00,,---,0.00,VWS V14.01,2013-07-08 07:00:00,
2013-07-08 00:04:00,53.3,46.6,29.85,NW,313,3.0,13.0,78,0.00,,---,0.00,VWS V14.01,2013-07-08 07:04:00,
2013-07-08 00:09:00,53.2,46.5,29.85,NW,304,11.0,17.0,78,0.00,,---,0.00,VWS V14.01,2013-07-08 07:09:00,
2013-07-08 00:14:00,53.1,46.4,29.85,NW,307,15.0,17.0,78,0.00,,---,0.00,VWS V14.01,2013-07-08 07:14:00,
2013-07-08 00:19:00,53.1,46.4,29.85,NW,326,13.0,17.0,78,0.00,,---,0.00,VWS V14.01,2013-07-08 07:19:00,
2013-07-08 00:24:00,53.1,46.4,29.85,NW,309,12.0,19.0,78,0.00,,---,0.00,VWS V14.01,2013-07-08 07:24:00,
2013-07-08 00:29:00,53.0,46.3,29.85,NW,319,13.0,17.0,78,0.00,,---,0.00,VWS V14.01,2013-07-08 07:29:00,
2013-07-08 00:30:00,53.0,46.3,29.85,NW,326,17.0,21.0,78,0.00,,---,0.00,VWS V14.01,2013-07-08 07:30:00,
2013-07-08 00:34:00,52.9,46.2,29.85,NW,325,8.0,23.0,78,0.00,,---,0.00,VWS V14.01,2013-07-08 07:34:00,
2013-07-08 00:39:00,53.0,46.3,29.85,NW,324,10.0,23.0,78,0.00,,---,0.00,VWS V14.01,2013-07-08 07:39:00,
2013-07-08 00:44:00,52.9,46.2,29.85,NW,319,6.0,23.0,78,0.00,,---,0.00,VWS V14.01,2013-07-08 07:44:00,
2013-07-08 00:49:00,53.0,46.3,29.85,NW,311,4.0,23.0,78,0.00,,---,0.00,VWS V14.01,2013-07-08 07:49:00,
2013-07-08 00:55:00,53.0,46.3,29.85,NW,323,14.0,23.0,78,0.00,,---,0.00,VWS V14.01,2013-07-08 07:55:00,
2013-07-08 01:00:00,53.0,46.3,29.85,North,360,6.0,14.0,78,0.00,,---,0.00,VWS V14.01,2013-07-08 08:00:00,
2013-07-08 01:05:00,53.0,46.3,29.85,NNW,330,10.0,17.0,78,0.00,,---,0.00,VWS V14.01,2013-07-08 08:05:00,
2013-07-08 01:10:00,53.0,46.3,29.85,NW,306,1.0,18.0,78,0.00,,---,0.00,VWS V14.01,2013-07-08 08:10:00,
2013-07-08 01:15:00,52.9,46.2,29.85,West,275,10.0,18.0,78,0.00,,---,0.00,VWS V14.01,2013-07-08 08:15:00,
2013-07-08 01:20:00,53.0,46.3,29.85,NNW,327,5.0,18.0,78,0.00,,---,0.00,VWS V14.01,2013-07-08 08:20:00,
2013-07-08 01:25:00,53.0,46.3,29.86,ENE,66,4.0,18.0,78,0.00,,---,0.00,VWS V14.01,2013-07-08 08:25:00,
2013-07-08 01:30:00,53.1,46.4,29.86,NNW,348,0.0,9.0,78,0.00,,---,0.00,VWS V14.01,2013-07-08 08:30:00,
2013-07-08 01:35:00,53.1,46.4,29.86,NNW,340,0.0,15.0,78,0.00,,---,0.00,VWS V14.01,2013-07-08 08:35:00,
2013-07-08 01:40:00,53.1,46.8,29.86,South,186,0.0,15.0,79,0.00,,---,0.00,VWS V14.01,2013-07-08 08:40:00,
2013-07-08 01:45:00,53.1,46.8,29.85,NW,325,6.0,15.0,79,0.00,,---,0.00,VWS V14.01,2013-07-08 08:45:00,
2013-07-08 01:50:00,53.0,46.7,29.86,WSW,239,0.0,15.0,79,0.00,,---,0.00,VWS V14.01,2013-07-08 08:50:00,
2013-07-08 01:55:00,53.1,46.8,29.86,SSE,160,1.0,15.0,79,0.00,,---,0.00,VWS V14.01,2013-07-08 08:55:00,
2013-07-08 02:00:00,53.2,46.9,29.86,West,268,0.0,9.0,79,0.00,,---,0.00,VWS V14.01,2013-07-08 09:00:00,
2013-07-08 02:05:00,53.2,46.9,29.86,SSW,193,2.0,12.0,79,0.00,,---,0.00,VWS V14.01,2013-07-08 09:05:00,
2013-07-08 02:10:00,53.1,46.8,29.86,NE,42,0.0,12.0,79,0.00,,---,0.00,VWS V14.01,2013-07-08 09:10:00,
2013-07-08 02:15:00,53.2,46.9,29.86,East,94,0.0,12.0,79,0.00,,---,0.00,VWS V14.01,2013-07-08 09:15:00,
2013-07-08 02:20:00,53.1,46.8,29.86,NW,312,2.0,12.0,79,0.00,,---,0.00,VWS V14.01,2013-07-08 09:20:00,
2013-07-08 02:25:00,53.0,47.0,29.86,SSE,167,0.0,12.0,80,0.00,,---,0.00,VWS V14.01,2013-07-08 09:25:00,
2013-07-08 02:30:00,52.9,46.9,29.86,NW,313,5.0,9.0,80,0.00,,---,0.00,VWS V14.01,2013-07-08 09:30:00,
2013-07-08 02:35:00,52.8,46.8,29.86,WSW,253,0.0,11.0,80,0.00,,---,0.00,VWS V14.01,2013-07-08 09:35:00,
2013-07-08 02:40:00,52.8,46.8,29.86,NW,313,0.0,12.0,80,0.00,,---,0.00,VWS V14.01,2013-07-08 09:40:00,
2013-07-08 02:45:00,52.9,46.9,29.86,West,276,0.0,12.0,80,0.00,,---,0.00,VWS V14.01,2013-07-08 09:45:00,
2013-07-08 02:50:00,52.9,46.9,29.86,NW,322,0.0,12.0,80,0.00,,---,0.00,VWS V14.01,2013-07-08 09:50:00,
2013-07-08 02:55:00,52.9,46.9,29.86,North,11,0.0,12.0,80,0.00,,---,0.00,VWS V14.01,2013-07-08 09:55:00,
2013-07-08 03:00:00,52.9,47.2,29.86,NW,318,4.0,12.0,81,0.00,,---,0.00,VWS V14.01,2013-07-08 10:00:00,
2013-07-08 03:01:00,52.9,47.2,29.86,NW,320,6.0,11.0,81,0.00,,---,0.00,VWS V14.01,2013-07-08 10:01:00,
2013-07-08 03:06:00,52.9,47.2,29.86,North,360,4.0,11.0,81,0.00,,---,0.00,VWS V14.01,2013-07-08 10:06:00,
2013-07-08 03:11:00,52.9,46.9,29.86,NW,308,0.0,11.0,80,0.00,,---,0.00,VWS V14.01,2013-07-08 10:11:00,
2013-07-08 03:16:00,52.9,46.9,29.86,NW,321,0.0,11.0,80,0.00,,---,0.00,VWS V14.01,2013-07-08 10:16:00,
2013-07-08 03:21:00,52.9,46.9,29.86,NW,318,5.0,11.0,80,0.00,,---,0.00,VWS V14.01,2013-07-08 10:21:00,
2013-07-08 03:26:00,52.9,46.9,29.86,NW,322,3.0,11.0,80,0.00,,---,0.00,VWS V14.01,2013-07-08 10:26:00,
2013-07-08 03:30:00,53.0,47.0,29.86,ENE,57,1.0,11.0,80,0.00,,---,0.00,VWS V14.01,2013-07-08 10:30:00,
2013-07-08 03:31:00,53.0,47.0,29.86,West,278,0.0,4.0,80,0.00,,---,0.00,VWS V14.01,2013-07-08 10:31:00,
2013-07-08 03:36:00,53.0,47.0,29.86,WNW,286,0.0,8.0,80,0.00,,---,0.00,VWS V14.01,2013-07-08 10:36:00,
2013-07-08 03:41:00,53.2,47.2,29.86,WSW,252,0.0,8.0,80,0.00,,---,0.00,VWS V14.01,2013-07-08 10:41:00,
2013-07-08 03:46:00,53.2,47.2,29.86,SSW,198,0.0,8.0,80,0.00,,---,0.00,VWS V14.01,2013-07-08 10:46:00,
2013-07-08 03:51:00,53.2,47.2,29.86,SE,134,0.0,8.0,80,0.00,,---,0.00,VWS V14.01,2013-07-08 10:51:00,
2013-07-08 03:56:00,53.0,47.3,29.86,NNW,345,4.0,10.0,81,0.00,,---,0.00,VWS V14.01,2013-07-08 10:56:00,
2013-07-08 04:00:00,53.0,47.3,29.87,NNW,333,0.0,10.0,81,0.00,,---,0.00,VWS V14.01,2013-07-08 11:00:00,
2013-07-08 04:01:00,53.0,47.3,29.87,NW,315,4.0,6.0,81,0.00,,---,0.00,VWS V14.01,2013-07-08 11:01:00,
2013-07-08 04:06:00,53.0,47.3,29.87,West,277,0.0,7.0,81,0.00,,---,0.00,VWS V14.01,2013-07-08 11:06:00,
2013-07-08 04:11:00,53.0,47.3,29.87,West,276,0.0,7.0,81,0.00,,---,0.00,VWS V14.01,2013-07-08 11:11:00,
2013-07-08 04:16:00,53.1,47.4,29.87,SE,125,0.0,7.0,81,0.00,,---,0.00,VWS V14.01,2013-07-08 11:16:00,
2013-07-08 04:21:00,53.1,47.4,29.87,SE,127,0.0,7.0,81,0.00,,---,0.00,VWS V14.01,2013-07-08 11:21:00,
2013-07-08 04:26:00,53.1,47.4,29.88,East,80,0.0,7.0,81,0.00,,---,0.00,VWS V14.01,2013-07-08 11:26:00,
2013-07-08 04:30:00,53.1,47.4,29.87,NNE,28,0.0,7.0,81,0.00,,---,0.00,VWS V14.01,2013-07-08 11:30:00,
2013-07-08 04:31:00,53.0,47.3,29.88,NW,315,5.0,8.0,81,0.00,,---,0.00,VWS V14.01,2013-07-08 11:31:00,
2013-07-08 04:36:00,52.9,47.2,29.88,NW,313,0.0,8.0,81,0.00,,---,0.00,VWS V14.01,2013-07-08 11:36:00,
2013-07-08 04:41:00,52.8,47.1,29.88,NW,304,2.0,9.0,81,0.00,,---,0.00,VWS V14.01,2013-07-08 11:41:00,
2013-07-08 04:46:00,52.8,47.1,29.88,NW,317,5.0,10.0,81,0.00,,---,0.00,VWS V14.01,2013-07-08 11:46:00,
2013-07-08 04:51:00,52.8,47.1,29.88,NW,314,2.0,10.0,81,0.00,,---,0.00,VWS V14.01,2013-07-08 11:51:00,
2013-07-08 04:57:00,52.8,47.1,29.88,NW,321,4.0,10.0,81,0.00,,---,0.00,VWS V14.01,2013-07-08 11:57:00,
2013-07-08 05:00:00,52.9,47.6,29.88,NW,311,6.0,10.0,82,0.00,,---,0.00,VWS V14.01,2013-07-08 12:00:00,
2013-07-08 05:02:00,52.8,47.5,29.88,NW,318,7.0,9.0,82,0.00,,---,0.00,VWS V14.01,2013-07-08 12:02:00,
2013-07-08 05:07:00,52.8,47.5,29.88,WNW,286,0.0,9.0,82,0.00,,---,0.00,VWS V14.01,2013-07-08 12:07:00,
2013-07-08 05:12:00,52.9,47.6,29.88,NW,315,5.0,9.0,82,0.00,,---,0.00,VWS V14.01,2013-07-08 12:12:00,
2013-07-08 05:17:00,52.9,47.6,29.88,North,360,0.0,9.0,82,0.00,,---,0.00,VWS V14.01,2013-07-08 12:17:00,
2013-07-08 05:22:00,52.9,47.2,29.88,NW,304,0.0,9.0,81,0.00,,---,0.00,VWS V14.01,2013-07-08 12:22:00,
2013-07-08 05:27:00,52.9,47.2,29.88,NW,313,4.0,9.0,81,0.00,,---,0.00,VWS V14.01,2013-07-08 12:27:00,
2013-07-08 05:30:00,52.9,47.2,29.88,NW,311,0.0,9.0,81,0.00,,---,0.00,VWS V14.01,2013-07-08 12:30:00,
2013-07-08 05:32:00,52.9,47.2,29.88,NW,312,2.0,6.0,81,0.00,,---,0.00,VWS V14.01,2013-07-08 12:32:00,
2013-07-08 05:37:00,52.9,47.2,29.88,WNW,303,4.0,7.0,81,0.00,,---,0.00,VWS V14.01,2013-07-08 12:37:00,
2013-07-08 05:42:00,52.9,47.2,29.88,NW,306,0.0,7.0,81,0.00,,---,0.00,VWS V14.01,2013-07-08 12:42:00,
2013-07-08 05:47:00,53.0,47.3,29.89,NW,309,1.0,7.0,81,0.00,,---,0.00,VWS V14.01,2013-07-08 12:47:00,
2013-07-08 05:52:00,53.0,47.3,29.89,NW,313,5.0,7.0,81,0.00,,---,0.00,VWS V14.01,2013-07-08 12:52:00,
2013-07-08 05:57:00,53.0,47.3,29.89,NW,317,8.0,11.0,81,0.00,,---,0.00,VWS V14.01,2013-07-08 12:57:00,
2013-07-08 06:00:00,52.9,47.2,29.89,WNW,284,6.0,11.0,81,0.00,,---,0.00,VWS V14.01,2013-07-08 13:00:00,
2013-07-08 06:02:00,52.9,47.2,29.89,North,360,5.0,10.0,81,0.00,,---,0.00,VWS V14.01,2013-07-08 13:02:00,
2013-07-08 06:07:00,53.0,47.3,29.89,NW,313,4.0,10.0,81,0.00,,---,0.00,VWS V14.01,2013-07-08 13:07:00,
2013-07-08 06:12:00,53.0,47.3,29.89,NW,307,5.0,10.0,81,0.00,,---,0.00,VWS V14.01,2013-07-08 13:12:00,
2013-07-08 06:17:00,53.0,47.3,29.89,WNW,286,0.0,10.0,81,0.00,,---,0.00,VWS V14.01,2013-07-08 13:17:00,
2013-07-08 06:22:00,53.1,47.4,29.89,North,360,1.0,10.0,81,0.00,,---,0.00,VWS V14.01,2013-07-08 13:22:00,
2013-07-08 06:27:00,53.1,47.4,29.89,NW,307,2.0,10.0,81,0.00,,---,0.00,VWS V14.01,2013-07-08 13:27:00,
2013-07-08 06:30:00,53.1,47.4,29.89,NW,309,0.0,10.0,81,0.00,,---,0.00,VWS V14.01,2013-07-08 13:30:00,
2013-07-08 06:33:00,53.1,47.4,29.89,NW,304,4.0,6.0,81,0.00,,---,0.00,VWS V14.01,2013-07-08 13:33:00,
2013-07-08 06:38:00,53.1,47.4,29.90,NW,306,2.0,10.0,81,0.00,,---,0.00,VWS V14.01,2013-07-08 13:38:00,
2013-07-08 06:43:00,53.1,47.4,29.90,NW,313,4.0,10.0,81,0.00,,---,0.00,VWS V14.01,2013-07-08 13:43:00,
2013-07-08 06:48:00,53.1,47.8,29.90,North,360,6.0,10.0,82,0.00,,---,0.00,VWS V14.01,2013-07-08 13:48:00,
2013-07-08 06:53:00,53.1,47.8,29.90,NW,311,0.0,10.0,82,0.00,,---,0.00,VWS V14.01,2013-07-08 13:53:00,
2013-07-08 06:58:00,53.2,47.9,29.90,WNW,302,1.0,10.0,82,0.00,,---,0.00,VWS V14.01,2013-07-08 13:58:00,
2013-07-08 07:00:00,53.2,47.9,29.90,North,360,1.0,10.0,82,0.00,,---,0.00,VWS V14.01,2013-07-08 14:00:00,
2013-07-08 07:03:00,53.2,47.9,29.90,WNW,302,0.0,5.0,82,0.00,,---,0.00,VWS V14.01,2013-07-08 14:03:00,
2013-07-08 07:08:00,53.3,48.0,29.91,North,360,0.0,5.0,82,0.00,,---,0.00,VWS V14.01,2013-07-08 14:08:00,
2013-07-08 07:13:00,53.4,48.0,29.91,North,360,0.0,5.0,82,0.00,,---,0.00,VWS V14.01,2013-07-08 14:13:00,
2013-07-08 07:18:00,53.5,48.2,29.91,NW,314,0.0,5.0,82,0.00,,---,0.00,VWS V14.01,2013-07-08 14:18:00,
2013-07-08 07:23:00,53.6,48.2,29.91,NW,313,0.0,5.0,82,0.00,,---,0.00,VWS V14.01,2013-07-08 14:23:00,
2013-07-08 07:28:00,53.8,48.8,29.91,NW,314,7.0,7.0,83,0.00,,---,0.00,VWS V14.01,2013-07-08 14:28:00,
2013-07-08 07:30:00,53.8,48.8,29.91,NW,314,4.0,7.0,83,0.00,,---,0.00,VWS V14.01,2013-07-08 14:30:00,
2013-07-08 07:33:00,53.8,48.8,29.91,WNW,287,4.0,6.0,83,0.00,,---,0.00,VWS V14.01,2013-07-08 14:33:00,
2013-07-08 07:39:00,54.0,49.0,29.91,WNW,302,0.0,6.0,83,0.00,,---,0.00,VWS V14.01,2013-07-08 14:39:00,
2013-07-08 07:44:00,54.1,49.1,29.91,NW,312,0.0,6.0,83,0.00,,---,0.00,VWS V14.01,2013-07-08 14:44:00,
2013-07-08 07:49:00,54.3,49.6,29.92,North,360,3.0,6.0,84,0.00,,---,0.00,VWS V14.01,2013-07-08 14:49:00,
2013-07-08 07:54:00,54.4,49.7,29.92,WNW,302,3.0,6.0,84,0.00,,---,0.00,VWS V14.01,2013-07-08 14:54:00,
2013-07-08 07:59:00,54.5,49.8,29.92,NW,313,0.0,0.0,84,0.00,,---,0.00,VWS V14.01,2013-07-08 14:59:00,
2013-07-08 08:00:00,54.5,49.8,29.92,NW,313,0.0,6.0,84,0.00,,---,0.00,VWS V14.01,2013-07-08 15:00:00,
2013-07-08 08:04:00,54.8,50.1,29.92,NW,313,2.0,6.0,84,0.00,,---,0.00,VWS V14.01,2013-07-08 15:04:00,
2013-07-08 08:09:00,55.0,50.3,29.92,NW,313,0.0,6.0,84,0.00,,---,0.00,VWS V14.01,2013-07-08 15:09:00,
2013-07-08 08:14:00,55.6,51.2,29.92,NW,311,0.0,6.0,85,0.00,,---,0.00,VWS V14.01,2013-07-08 15:14:00,
2013-07-08 08:19:00,55.8,51.4,29.92,NW,309,0.0,6.0,85,0.00,,---,0.00,VWS V14.01,2013-07-08 15:19:00,
2013-07-08 08:24:00,55.8,51.4,29.92,NW,313,0.0,7.0,85,0.00,,---,0.00,VWS V14.01,2013-07-08 15:24:00,
2013-07-08 08:29:00,56.4,52.0,29.92,NW,313,0.0,0.0,85,0.00,,---,0.00,VWS V14.01,2013-07-08 15:29:00,
2013-07-08 08:30:00,56.3,51.9,29.92,NW,313,0.0,7.0,85,0.00,,---,0.00,VWS V14.01,2013-07-08 15:30:00,
2013-07-08 08:34:00,57.0,52.5,29.92,NW,313,0.0,0.0,85,0.00,,---,0.00,VWS V14.01,2013-07-08 15:34:00,
2013-07-08 08:39:00,57.7,53.2,29.92,NW,313,0.0,0.0,85,0.00,,---,0.00,VWS V14.01,2013-07-08 15:39:00,
2013-07-08 08:44:00,58.7,53.9,29.92,NW,311,3.0,4.0,84,0.00,,---,0.00,VWS V14.01,2013-07-08 15:44:00,
2013-07-08 08:49:00,59.0,53.8,29.92,NW,311,0.0,5.0,83,0.00,,---,0.00,VWS V14.01,2013-07-08 15:49:00,
2013-07-08 08:54:00,59.0,54.2,29.92,NW,313,0.0,6.0,84,0.00,,---,0.00,VWS V14.01,2013-07-08 15:54:00,
2013-07-08 08:59:00,59.4,54.2,29.92,West,276,0.0,0.0,83,0.00,,---,0.00,VWS V14.01,2013-07-08 15:59:00,
2013-07-08 09:00:00,59.2,54.0,29.92,WNW,303,0.0,6.0,83,0.00,,---,0.00,VWS V14.01,2013-07-08 16:00:00,
2013-07-08 09:04:00,59.0,53.5,29.92,NW,314,3.0,7.0,82,0.00,,---,0.00,VWS V14.01,2013-07-08 16:04:00,
2013-07-08 09:09:00,59.0,54.2,29.92,NW,313,0.0,7.0,84,0.00,,---,0.00,VWS V14.01,2013-07-08 16:09:00,
2013-07-08 09:14:00,59.3,54.2,29.92,NW,313,2.0,7.0,83,0.00,,---,0.00,VWS V14.01,2013-07-08 16:14:00,
2013-07-08 09:20:00,59.0,53.5,29.93,NW,311,1.0,9.0,82,0.00,,---,0.00,VWS V14.01,2013-07-08 16:20:00,
2013-07-08 09:25:00,59.3,53.8,29.92,NW,304,0.0,9.0,82,0.00,,---,0.00,VWS V14.01,2013-07-08 16:25:00,
2013-07-08 09:30:00,59.0,53.5,29.92,WNW,284,1.0,7.0,82,0.00,,---,0.00,VWS V14.01,2013-07-08 16:30:00,
2013-07-08 09:35:00,59.0,53.8,29.92,NW,315,9.0,10.0,83,0.00,,---,0.00,VWS V14.01,2013-07-08 16:35:00,
2013-07-08 09:40:00,59.0,53.8,29.93,NW,321,4.0,11.0,83,0.00,,---,0.00,VWS V14.01,2013-07-08 16:40:00,
2013-07-08 09:45:00,59.0,53.5,29.93,NW,314,9.0,11.0,82,0.00,,---,0.00,VWS V14.01,2013-07-08 16:45:00,
2013-07-08 09:50:00,59.0,53.5,29.93,NNW,329,7.0,11.0,82,0.00,,---,0.00,VWS V14.01,2013-07-08 16:50:00,
2013-07-08 09:55:00,59.0,53.5,29.93,NW,314,6.0,13.0,82,0.00,,---,0.00,VWS V14.01,2013-07-08 16:55:00,
2013-07-08 10:00:00,58.9,53.8,29.93,NW,304,6.0,10.0,83,0.00,,---,0.00,VWS V14.01,2013-07-08 17:00:00,
2013-07-08 10:06:00,59.2,54.0,29.93,NW,315,0.0,11.0,83,0.00,,---,0.00,VWS V14.01,2013-07-08 17:06:00,
2013-07-08 10:12:00,59.6,53.8,29.93,NW,322,13.0,13.0,81,0.00,,---,0.00,VWS V14.01,2013-07-08 17:12:00,
2013-07-08 10:17:00,59.0,53.5,29.93,NW,307,12.0,14.0,82,0.00,,---,0.00,VWS V14.01,2013-07-08 17:17:00,
2013-07-08 10:22:00,58.4,53.3,29.93,NW,314,9.0,14.0,83,0.00,,---,0.00,VWS V14.01,2013-07-08 17:22:00,
2013-07-08 10:27:00,58.4,53.6,29.93,NW,313,11.0,14.0,84,0.00,,---,0.00,VWS V14.01,2013-07-08 17:27:00,
2013-07-08 10:30:00,58.5,53.4,29.94,NW,312,10.0,14.0,83,0.00,,---,0.00,VWS V14.01,2013-07-08 17:30:00,
2013-07-08 10:32:00,58.4,53.6,29.93,NW,307,4.0,11.0,84,0.00,,---,0.00,VWS V14.01,2013-07-08 17:32:00,
2013-07-08 10:37:00,58.7,53.6,29.93,NW,317,13.0,13.0,83,0.00,,---,0.00,VWS V14.01,2013-07-08 17:37:00,
2013-07-08 10:42:00,59.0,53.8,29.93,NW,306,4.0,13.0,83,0.00,,---,0.00,VWS V14.01,2013-07-08 17:42:00,
2013-07-08 10:47:00,59.0,53.8,29.94,NW,313,8.0,14.0,83,0.00,,---,0.00,VWS V14.01,2013-07-08 17:47:00,
2013-07-08 10:52:00,59.0,53.5,29.94,West,273,11.0,14.0,82,0.00,,---,0.00,VWS V14.01,2013-07-08 17:52:00,
2013-07-08 10:58:00,58.5,53.4,29.94,WNW,303,6.0,15.0,83,0.00,,---,0.00,VWS V14.01,2013-07-08 17:58:00,
2013-07-08 11:00:00,58.5,53.7,29.94,NW,304,3.0,15.0,84,0.00,,---,0.00,VWS V14.01,2013-07-08 18:00:00,
2013-07-08 11:04:00,59.0,53.8,29.94,WNW,302,0.0,13.0,83,0.00,,---,0.00,VWS V14.01,2013-07-08 18:04:00,
2013-07-08 11:09:00,59.2,53.7,29.94,NW,306,9.0,13.0,82,0.00,,---,0.00,VWS V14.01,2013-07-08 18:09:00,
2013-07-08 11:14:00,59.0,53.5,29.93,NW,315,7.0,18.0,82,0.00,,---,0.00,VWS V14.01,2013-07-08 18:14:00,
2013-07-08 11:20:00,59.2,53.7,29.94,ENE,61,0.0,18.0,82,0.00,,---,0.00,VWS V14.01,2013-07-08 18:20:00,
2013-07-08 11:25:00,60.5,54.7,29.94,ENE,59,0.0,18.0,81,0.00,,---,0.00,VWS V14.01,2013-07-08 18:25:00,
2013-07-08 11:30:00,60.3,54.1,29.94,NW,313,10.0,14.0,80,0.00,,---,0.00,VWS V14.01,2013-07-08 18:30:00,
2013-07-08 11:35:00,59.0,53.5,29.94,NW,307,8.0,15.0,82,0.00,,---,0.00,VWS V14.01,2013-07-08 18:35:00,
2013-07-08 11:41:00,59.0,53.2,29.94,NNW,334,11.0,16.0,81,0.00,,---,0.00,VWS V14.01,2013-07-08 18:41:00,
2013-07-08 11:46:00,59.0,53.8,29.94,North,355,5.0,16.0,83,0.00,,---,0.00,VWS V14.01,2013-07-08 18:46:00,
2013-07-08 11:51:00,59.2,53.7,29.94,NW,321,14.0,16.0,82,0.00,,---,0.00,VWS V14.01,2013-07-08 18:51:00,
2013-07-08 11:56:00,58.3,53.2,29.94,NW,311,7.0,16.0,83,0.00,,---,0.00,VWS V14.01,2013-07-08 18:56:00,
2013-07-08 12:00:00,58.7,53.6,29.94,NW,305,12.0,16.0,83,0.00,,---,0.00,VWS V14.01,2013-07-08 19:00:00,
2013-07-08 12:03:00,59.0,53.8,29.94,West,272,2.0,13.0,83,0.00,,---,0.00,VWS V14.01,2013-07-08 19:03:00,
2013-07-08 12:08:00,58.5,53.0,29.94,SW,234,2.0,19.0,82,0.00,,---,0.00,VWS V14.01,2013-07-08 19:08:00,
2013-07-08 12:13:00,59.0,53.8,29.94,NW,321,5.0,19.0,83,0.00,,---,0.00,VWS V14.01,2013-07-08 19:13:00,
2013-07-08 12:21:00,59.8,54.3,29.94,NNW,341,13.0,19.0,82,0.00,,---,0.00,VWS V14.01,2013-07-08 19:21:00,
2013-07-08 12:27:00,61.3,54.7,29.95,NNE,13,3.0,19.0,79,0.00,,---,0.00,VWS V14.01,2013-07-08 19:27:00,
2013-07-08 12:30:00,61.8,54.9,29.94,NNW,342,0.0,19.0,78,0.00,,---,0.00,VWS V14.01,2013-07-08 19:30:00,
2013-07-08 12:32:00,61.3,54.4,29.95,WSW,241,0.0,17.0,78,0.00,,---,0.00,VWS V14.01,2013-07-08 19:32:00,
2013-07-08 12:37:00,60.1,54.3,29.94,North,360,3.0,17.0,81,0.00,,---,0.00,VWS V14.01,2013-07-08 19:37:00,
2013-07-08 12:42:00,60.7,54.8,29.94,NNE,17,0.0,17.0,81,0.00,,---,0.00,VWS V14.01,2013-07-08 19:42:00,
2013-07-08 12:47:00,60.4,53.9,29.94,North,355,6.0,18.0,79,0.00,,---,0.00,VWS V14.01,2013-07-08 19:47:00,
2013-07-08 12:53:00,60.4,53.9,29.94,NW,323,9.0,22.0,79,0.00,,---,0.00,VWS V14.01,2013-07-08 19:53:00,
2013-07-08 12:59:00,60.0,54.5,29.93,East,86,9.0,22.0,82,0.00,,---,0.00,VWS V14.01,2013-07-08 19:59:00,
2013-07-08 13:00:00,60.0,54.5,29.93,East,86,9.0,22.0,82,0.00,,---,0.00,VWS V14.01,2013-07-08 20:00:00,
2013-07-08 13:05:00,59.0,53.5,29.93,NW,317,17.0,21.0,82,0.00,,---,0.00,VWS V14.01,2013-07-08 20:05:00,
2013-07-08 13:10:00,59.0,53.5,29.93,NW,311,17.0,23.0,82,0.00,,---,0.00,VWS V14.01,2013-07-08 20:10:00,
2013-07-08 13:16:00,59.0,53.8,29.93,NW,325,16.0,23.0,83,0.00,,---,0.00,VWS V14.01,2013-07-08 20:16:00,
2013-07-08 13:21:00,59.0,53.8,29.93,NW,311,19.0,23.0,83,0.00,,---,0.00,VWS V14.01,2013-07-08 20:21:00,
2013-07-08 13:27:00,59.8,54.6,29.93,SW,227,4.0,23.0,83,0.00,,---,0.00,VWS V14.01,2013-07-08 20:27:00,
2013-07-08 13:30:00,60.4,54.2,29.93,NW,314,5.0,23.0,80,0.00,,---,0.00,VWS V14.01,2013-07-08 20:30:00,
2013-07-08 13:32:00,60.9,55.0,29.93,North,360,9.0,14.0,81,0.00,,---,0.00,VWS V14.01,2013-07-08 20:32:00,
2013-07-08 13:39:00,59.3,53.8,29.93,NNW,334,22.0,24.0,82,0.00,,---,0.00,VWS V14.01,2013-07-08 20:39:00,
2013-07-08 13:44:00,59.0,53.8,29.93,NW,315,13.0,24.0,83,0.00,,---,0.00,VWS V14.01,2013-07-08 20:44:00,
2013-07-08 13:49:00,59.7,54.5,29.93,NW,317,5.0,24.0,83,0.00,,---,0.00,VWS V14.01,2013-07-08 20:49:00,
2013-07-08 13:55:00,60.1,54.6,29.93,NW,313,9.0,24.0,82,0.00,,---,0.00,VWS V14.01,2013-07-08 20:55:00,
2013-07-08 14:00:00,60.2,54.7,29.93,NW,306,9.0,24.0,82,0.00,,---,0.00,VWS V14.01,2013-07-08 21:00:00,
2013-07-08 14:01:00,60.2,54.7,29.93,NW,321,13.0,16.0,82,0.00,,---,0.00,VWS V14.01,2013-07-08 21:01:00,
2013-07-08 14:07:00,60.0,54.8,29.93,WNW,286,5.0,20.0,83,0.00,,---,0.00,VWS V14.01,2013-07-08 21:07:00,
2013-07-08 14:13:00,61.4,55.2,29.93,NW,304,10.0,20.0,80,0.00,,---,0.00,VWS V14.01,2013-07-08 21:13:00,
2013-07-08 14:18:00,61.0,54.8,29.93,WNW,302,7.0,20.0,80,0.00,,---,0.00,VWS V14.01,2013-07-08 21:18:00,
2013-07-08 14:23:00,60.8,55.3,29.93,NW,304,13.0,20.0,82,0.00,,---,0.00,VWS V14.01,2013-07-08 21:23:00,
2013-07-08 14:28:00,61.2,55.0,29.93,NNE,12,1.0,20.0,80,0.00,,---,0.00,VWS V14.01,2013-07-08 21:28:00,
2013-07-08 14:30:00,61.2,55.3,29.93,North,360,4.0,20.0,81,0.00,,---,0.00,VWS V14.01,2013-07-08 21:30:00,
2013-07-08 14:33:00,61.6,55.7,29.93,NNW,327,12.0,19.0,81,0.00,,---,0.00,VWS V14.01,2013-07-08 21:33:00,
2013-07-08 14:39:00,61.8,55.2,29.93,WNW,286,10.0,19.0,79,0.00,,---,0.00,VWS V14.01,2013-07-08 21:39:00,
2013-07-08 14:45:00,61.1,54.9,29.93,NW,315,14.0,20.0,80,0.00,,---,0.00,VWS V14.01,2013-07-08 21:45:00,
2013-07-08 14:51:00,60.1,54.9,29.93,NW,320,13.0,20.0,83,0.00,,---,0.00,VWS V14.01,2013-07-08 21:51:00,
2013-07-08 14:57:00,61.1,55.6,29.93,NW,304,5.0,20.0,82,0.00,,---,0.00,VWS V14.01,2013-07-08 21:57:00,
2013-07-08 15:00:00,61.1,55.2,29.93,NNW,333,15.0,22.0,81,0.00,,---,0.00,VWS V14.01,2013-07-08 22:00:00,
2013-07-08 15:02:00,60.2,54.7,29.93,West,279,20.0,23.0,82,0.00,,---,0.00,VWS V14.01,2013-07-08 22:02:00,
2013-07-08 15:08:00,59.8,54.6,29.92,West,277,11.0,25.0,83,0.00,,---,0.00,VWS V14.01,2013-07-08 22:08:00,
2013-07-08 15:13:00,60.0,54.5,29.92,NNW,337,11.0,25.0,82,0.00,,---,0.00,VWS V14.01,2013-07-08 22:13:00,
2013-07-08 15:19:00,59.9,54.7,29.92,NW,315,7.0,25.0,83,0.00,,---,0.00,VWS V14.01,2013-07-08 22:19:00,
2013-07-08 15:25:00,59.5,54.3,29.92,WNW,302,11.0,25.0,83,0.00,,---,0.00,VWS V14.01,2013-07-08 22:25:00,
2013-07-08 15:30:00,59.0,54.2,29.92,NW,319,16.0,17.0,84,0.00,,---,0.00,VWS V14.01,2013-07-08 22:30:00,
2013-07-08 15:35:00,59.1,54.0,29.92,West,281,13.0,26.0,83,0.00,,---,0.00,VWS V14.01,2013-07-08 22:35:00,
2013-07-08 15:40:00,59.0,54.2,29.92,NW,315,12.0,26.0,84,0.00,,---,0.00,VWS V14.01,2013-07-08 22:40:00,
2013-07-08 15:46:00,59.0,54.5,29.91,North,360,14.0,26.0,85,0.00,,---,0.00,VWS V14.01,2013-07-08 22:46:00,
2013-07-08 15:51:00,59.6,54.8,29.91,NW,306,13.0,26.0,84,0.00,,---,0.00,VWS V14.01,2013-07-08 22:51:00,
2013-07-08 15:57:00,59.0,54.2,29.91,NNW,330,14.0,26.0,84,0.00,,---,0.00,VWS V14.01,2013-07-08 22:57:00,
2013-07-08 16:00:00,59.0,54.2,29.91,NW,313,16.0,26.0,84,0.00,,---,0.00,VWS V14.01,2013-07-08 23:00:00,
2013-07-08 16:02:00,59.0,54.2,29.91,NW,306,13.0,22.0,84,0.00,,---,0.00,VWS V14.01,2013-07-08 23:02:00,
2013-07-08 16:07:00,58.2,53.7,29.91,West,281,12.0,22.0,85,0.00,,---,0.00,VWS V14.01,2013-07-08 23:07:00,
2013-07-08 16:12:00,58.7,54.2,29.91,NW,307,16.0,22.0,85,0.00,,---,0.00,VWS V14.01,2013-07-08 23:12:00,
2013-07-08 16:17:00,58.5,54.0,29.91,North,360,13.0,23.0,85,0.00,,---,0.00,VWS V14.01,2013-07-08 23:17:00,
2013-07-08 16:23:00,58.4,53.9,29.91,NW,318,14.0,23.0,85,0.00,,---,0.00,VWS V14.01,2013-07-08 23:23:00,
2013-07-08 16:28:00,58.4,53.9,29.91,NNW,339,20.0,23.0,85,0.00,,---,0.00,VWS V14.01,2013-07-08 23:28:00,
2013-07-08 16:30:00,58.2,53.7,29.91,North,360,19.0,23.0,85,0.00,,---,0.00,VWS V14.01,2013-07-08 23:30:00,
2013-07-08 16:33:00,57.6,53.1,29.92,NW,311,19.0,22.0,85,0.00,,---,0.00,VWS V14.01,2013-07-08 23:33:00,
2013-07-08 16:39:00,58.2,53.7,29.92,NW,308,12.0,22.0,85,0.00,,---,0.00,VWS V14.01,2013-07-08 23:39:00,
2013-07-08 16:44:00,57.9,53.4,29.92,NW,306,11.0,23.0,85,0.00,,---,0.00,VWS V14.01,2013-07-08 23:44:00,
2013-07-08 16:51:00,57.1,52.6,29.91,NW,318,11.0,24.0,85,0.00,,---,0.00,VWS V14.01,2013-07-08 23:51:00,
2013-07-08 16:57:00,57.0,52.2,29.91,NW,313,17.0,25.0,84,0.00,,---,0.00,VWS V14.01,2013-07-08 23:57:00,
2013-07-08 17:00:00,57.1,52.3,29.91,NW,306,22.0,25.0,84,0.00,,---,0.00,VWS V14.01,2013-07-09 00:00:00,
2013-07-08 17:02:00,57.0,52.5,29.91,North,360,16.0,26.0,85,0.00,,---,0.00,VWS V14.01,2013-07-09 00:02:00,
2013-07-08 17:08:00,57.2,52.7,29.91,NW,317,20.0,26.0,85,0.00,,---,0.00,VWS V14.01,2013-07-09 00:08:00,
2013-07-08 17:14:00,56.5,51.7,29.90,NW,317,19.0,26.0,84,0.00,,---,0.00,VWS V14.01,2013-07-09 00:14:00,
2013-07-08 17:19:00,56.8,52.0,29.90,NW,314,19.0,26.0,84,0.00,,---,0.00,VWS V14.01,2013-07-09 00:19:00,
2013-07-08 17:25:00,56.8,52.0,29.90,NW,319,18.0,26.0,84,0.00,,---,0.00,VWS V14.01,2013-07-09 00:25:00,
2013-07-08 17:30:00,56.0,51.2,29.90,NW,315,10.0,24.0,84,0.00,,---,0.00,VWS V14.01,2013-07-09 00:30:00,
2013-07-08 17:35:00,56.3,51.2,29.90,NW,324,10.0,24.0,83,0.00,,---,0.00,VWS V14.01,2013-07-09 00:35:00,
2013-07-08 17:40:00,56.1,51.3,29.90,NW,325,14.0,24.0,84,0.00,,---,0.00,VWS V14.01,2013-07-09 00:40:00,
2013-07-08 17:45:00,55.7,50.6,29.90,NW,306,20.0,24.0,83,0.00,,---,0.00,VWS V14.01,2013-07-09 00:45:00,
2013-07-08 17:51:00,55.5,50.1,29.90,NW,315,19.0,25.0,82,0.00,,---,0.00,VWS V14.01,2013-07-09 00:51:00,
2013-07-08 17:56:00,55.4,50.0,29.90,NW,324,19.0,25.0,82,0.00,,---,0.00,VWS V14.01,2013-07-09 00:56:00,
2013-07-08 18:00:00,55.2,49.5,29.90,NW,322,17.0,25.0,81,0.00,,---,0.00,VWS V14.01,2013-07-09 01:00:00,
2013-07-08 18:01:00,55.2,49.5,29.90,NNW,332,12.0,20.0,81,0.00,,---,0.00,VWS V14.01,2013-07-09 01:01:00,
2013-07-08 18:06:00,55.2,49.5,29.90,NW,307,19.0,23.0,81,0.00,,---,0.00,VWS V14.01,2013-07-09 01:06:00,
2013-07-08 18:11:00,55.2,49.5,29.89,NW,315,16.0,23.0,81,0.00,,---,0.00,VWS V14.01,2013-07-09 01:11:00,
2013-07-08 18:17:00,55.1,49.4,29.89,NW,306,19.0,25.0,81,0.00,,---,0.00,VWS V14.01,2013-07-09 01:17:00,
2013-07-08 18:22:00,55.0,49.3,29.89,NW,319,22.0,25.0,81,0.00,,---,0.00,VWS V14.01,2013-07-09 01:22:00,
2013-07-08 18:27:00,55.0,49.0,29.89,NNW,331,18.0,25.0,80,0.00,,---,0.00,VWS V14.01,2013-07-09 01:27:00,
2013-07-08 18:30:00,55.0,49.0,29.89,NW,320,15.0,26.0,80,0.00,,---,0.00,VWS V14.01,2013-07-09 01:30:00,
2013-07-08 18:32:00,55.2,49.2,29.90,NW,321,21.0,23.0,80,0.00,,---,0.00,VWS V14.01,2013-07-09 01:32:00,
2013-07-08 18:38:00,55.3,49.2,29.90,NW,317,12.0,23.0,80,0.00,,---,0.00,VWS V14.01,2013-07-09 01:38:00,
2013-07-08 18:43:00,55.2,49.5,29.90,NW,306,12.0,24.0,81,0.00,,---,0.00,VWS V14.01,2013-07-09 01:43:00,
2013-07-08 18:48:00,55.0,49.3,29.90,NW,315,22.0,26.0,81,0.00,,---,0.00,VWS V14.01,2013-07-09 01:48:00,
2013-07-08 18:54:00,55.0,49.0,29.90,WNW,302,15.0,26.0,80,0.00,,---,0.00,VWS V14.01,2013-07-09 01:54:00,
2013-07-08 18:59:00,54.9,48.9,29.90,North,360,11.0,22.0,80,0.00,,---,0.00,VWS V14.01,2013-07-09 01:59:00,
2013-07-08 19:00:00,54.9,48.8,29.90,NW,315,9.0,26.0,80,0.00,,---,0.00,VWS V14.01,2013-07-09 02:00:00,
2013-07-08 19:05:00,54.8,48.8,29.90,NW,304,12.0,22.0,80,0.00,,---,0.00,VWS V14.01,2013-07-09 02:05:00,
2013-07-08 19:10:00,54.7,48.7,29.91,NW,321,17.0,22.0,80,0.00,,---,0.00,VWS V14.01,2013-07-09 02:10:00,
2013-07-08 19:15:00,54.6,48.2,29.91,West,280,14.0,22.0,79,0.00,,---,0.00,VWS V14.01,2013-07-09 02:15:00,
2013-07-08 19:20:00,54.7,48.3,29.91,NW,324,6.0,23.0,79,0.00,,---,0.00,VWS V14.01,2013-07-09 02:20:00,
2013-07-08 19:26:00,54.7,48.3,29.91,NNW,341,10.0,23.0,79,0.00,,---,0.00,VWS V14.01,2013-07-09 02:26:00,
2013-07-08 19:30:00,54.7,48.3,29.91,WNW,302,6.0,23.0,79,0.00,,---,0.00,VWS V14.01,2013-07-09 02:30:00,
2013-07-08 19:32:00,54.7,48.3,29.91,North,360,14.0,20.0,79,0.00,,---,0.00,VWS V14.01,2013-07-09 02:32:00,
2013-07-08 19:38:00,54.7,48.3,29.91,NNW,327,12.0,20.0,79,0.00,,---,0.00,VWS V14.01,2013-07-09 02:38:00,
2013-07-08 19:44:00,54.5,48.1,29.91,NW,314,16.0,21.0,79,0.00,,---,0.00,VWS V14.01,2013-07-09 02:44:00,
2013-07-08 19:50:00,54.3,47.9,29.90,NW,314,16.0,23.0,79,0.00,,---,0.00,VWS V14.01,2013-07-09 02:50:00,
2013-07-08 19:55:00,54.0,47.6,29.90,North,360,22.0,25.0,79,0.00,,---,0.00,VWS V14.01,2013-07-09 02:55:00,
2013-07-08 20:00:00,54.0,47.3,29.90,WNW,303,18.0,25.0,78,0.00,,---,0.00,VWS V14.01,2013-07-09 03:00:00,
2013-07-08 20:02:00,54.0,47.3,29.90,NNW,343,14.0,25.0,78,0.00,,---,0.00,VWS V14.01,2013-07-09 03:02:00,
2013-07-08 20:07:00,53.8,47.1,29.90,NW,306,12.0,25.0,78,0.00,,---,0.00,VWS V14.01,2013-07-09 03:07:00,
2013-07-08 20:13:00,53.6,47.3,29.91,NW,321,10.0,25.0,79,0.00,,---,0.00,VWS V14.01,2013-07-09 03:13:00,
2013-07-08 20:19:00,53.5,46.8,29.91,NW,304,17.0,25.0,78,0.00,,---,0.00,VWS V14.01,2013-07-09 03:19:00,
2013-07-08 20:24:00,53.5,46.8,29.91,NW,314,7.0,25.0,78,0.00,,---,0.00,VWS V14.01,2013-07-09 03:24:00,
2013-07-08 20:30:00,53.6,46.9,29.91,NW,325,10.0,18.0,78,0.00,,---,0.00,VWS V14.01,2013-07-09 03:30:00,
2013-07-08 20:35:00,53.5,46.8,29.91,NW,313,3.0,18.0,78,0.00,,---,0.00,VWS V14.01,2013-07-09 03:35:00,
2013-07-08 20:40:00,53.5,46.8,29.91,North,360,6.0,18.0,78,0.00,,---,0.00,VWS V14.01,2013-07-09 03:40:00,
2013-07-08 20:46:00,53.5,46.8,29.91,NW,314,12.0,18.0,78,0.00,,---,0.00,VWS V14.01,2013-07-09 03:46:00,
2013-07-08 20:51:00,53.3,46.6,29.91,NW,321,6.0,19.0,78,0.00,,---,0.00,VWS V14.01,2013-07-09 03:51:00,
2013-07-08 20:56:00,53.2,46.5,29.91,NW,311,8.0,20.0,78,0.00,,---,0.00,VWS V14.01,2013-07-09 03:56:00,
2013-07-08 21:00:00,53.2,46.5,29.92,NW,323,4.0,20.0,78,0.00,,---,0.00,VWS V14.01,2013-07-09 04:00:00,
2013-07-08 21:01:00,53.2,46.2,29.92,NW,318,14.0,14.0,77,0.00,,---,0.00,VWS V14.01,2013-07-09 04:01:00,
2013-07-08 21:03:00,53.2,46.2,29.92,NNW,327,11.0,17.0,77,0.00,,---,0.00,VWS V14.01,2013-07-09 04:03:00,
2013-07-08 21:04:00,53.2,46.2,29.92,NW,309,6.0,17.0,77,0.00,,---,0.00,VWS V14.01,2013-07-09 04:04:00,
2013-07-08 21:09:00,53.2,46.2,29.93,NW,313,1.0,17.0,77,0.00,,---,0.00,VWS V14.01,2013-07-09 04:09:00,
2013-07-08 21:13:00,53.3,46.3,29.93,South,176,0.0,17.0,77,0.00,,---,0.00,VWS V14.01,2013-07-09 04:13:00,
2013-07-08 21:18:00,53.4,46.4,29.93,SW,219,2.0,17.0,77,0.00,,---,0.00,VWS V14.01,2013-07-09 04:18:00,
2013-07-08 21:23:00,53.2,46.2,29.93,North,360,0.0,17.0,77,0.00,,---,0.00,VWS V14.01,2013-07-09 04:23:00,
2013-07-08 21:28:00,53.1,46.1,29.94,NW,319,0.0,17.0,77,0.00,,---,0.00,VWS V14.01,2013-07-09 04:28:00,
2013-07-08 21:30:00,53.1,46.1,29.94,NW,318,0.0,17.0,77,0.00,,---,0.00,VWS V14.01,2013-07-09 04:30:00,
2013-07-08 21:33:00,53.1,46.1,29.94,NW,317,7.0,12.0,77,0.00,,---,0.00,VWS V14.01,2013-07-09 04:33:00,
2013-07-08 21:38:00,53.0,46.0,29.94,NW,320,6.0,12.0,77,0.00,,---,0.00,VWS V14.01,2013-07-09 04:38:00,
2013-07-08 21:43:00,52.7,46.0,29.94,NW,318,12.0,13.0,78,0.00,,---,0.00,VWS V14.01,2013-07-09 04:43:00,
2013-07-08 21:48:00,52.7,45.7,29.94,NW,325,14.0,18.0,77,0.00,,---,0.00,VWS V14.01,2013-07-09 04:48:00,
2013-07-08 21:53:00,52.6,45.6,29.94,North,360,6.0,19.0,77,0.00,,---,0.00,VWS V14.01,2013-07-09 04:53:00,
2013-07-08 21:58:00,52.5,45.8,29.94,NW,324,11.0,19.0,78,0.00,,---,0.00,VWS V14.01,2013-07-09 04:58:00,
2013-07-08 22:00:00,52.5,45.8,29.94,NW,315,1.0,19.0,78,0.00,,---,0.00,VWS V14.01,2013-07-09 05:00:00,
2013-07-08 22:03:00,52.7,45.7,29.95,NW,309,4.0,11.0,77,0.00,,---,0.00,VWS V14.01,2013-07-09 05:03:00,
2013-07-08 22:08:00,52.7,45.7,29.95,West,279,1.0,11.0,77,0.00,,---,0.00,VWS V14.01,2013-07-09 05:08:00,
2013-07-08 22:13:00,52.7,45.7,29.96,WNW,285,0.0,11.0,77,0.00,,---,0.00,VWS V14.01,2013-07-09 05:13:00,
2013-07-08 22:18:00,52.6,45.6,29.95,West,279,0.0,11.0,77,0.00,,---,0.00,VWS V14.01,2013-07-09 05:18:00,
2013-07-08 22:23:00,52.6,45.6,29.96,NW,322,0.0,11.0,77,0.00,,---,0.00,VWS V14.01,2013-07-09 05:23:00,
2013-07-08 22:29:00,52.6,45.6,29.96,West,280,0.0,12.0,77,0.00,,---,0.00,VWS V14.01,2013-07-09 05:29:00,
2013-07-08 22:30:00,52.6,45.6,29.96,West,280,0.0,12.0,77,0.00,,---,0.00,VWS V14.01,2013-07-09 05:30:00,
2013-07-08 22:34:00,52.5,45.5,29.96,NW,306,3.0,10.0,77,0.00,,---,0.00,VWS V14.01,2013-07-09 05:34:00,
2013-07-08 22:39:00,52.3,45.3,29.96,NW,315,10.0,14.0,77,0.00,,---,0.00,VWS V14.01,2013-07-09 05:39:00,
2013-07-08 22:44:00,52.4,45.4,29.96,NNE,19,0.0,14.0,77,0.00,,---,0.00,VWS V14.01,2013-07-09 05:44:00,
2013-07-08 22:49:00,52.5,45.5,29.96,NW,315,0.0,14.0,77,0.00,,---,0.00,VWS V14.01,2013-07-09 05:49:00,
2013-07-08 22:54:00,52.7,45.7,29.97,NW,315,0.0,14.0,77,0.00,,---,0.00,VWS V14.01,2013-07-09 05:54:00,
2013-07-08 22:59:00,52.7,45.7,29.96,NNW,336,0.0,2.0,77,0.00,,---,0.00,VWS V14.01,2013-07-09 05:59:00,
2013-07-08 23:00:00,52.7,45.7,29.97,NW,324,0.0,14.0,77,0.00,,---,0.00,VWS V14.01,2013-07-09 06:00:00,
2013-07-08 23:04:00,52.5,45.5,29.96,NNW,328,5.0,9.0,77,0.00,,---,0.00,VWS V14.01,2013-07-09 06:04:00,
2013-07-08 23:09:00,52.2,45.2,29.96,NW,313,9.0,16.0,77,0.00,,---,0.00,VWS V14.01,2013-07-09 06:09:00,
2013-07-08 23:14:00,52.2,45.2,29.96,NW,324,14.0,17.0,77,0.00,,---,0.00,VWS V14.01,2013-07-09 06:14:00,
2013-07-08 23:19:00,52.1,45.1,29.96,WNW,303,12.0,17.0,77,0.00,,---,0.00,VWS V14.01,2013-07-09 06:19:00,
2013-07-08 23:24:00,52.1,45.1,29.96,NW,326,13.0,18.0,77,0.00,,---,0.00,VWS V14.01,2013-07-09 06:24:00,
2013-07-08 23:29:00,52.1,45.1,29.96,NW,321,15.0,15.0,77,0.00,,---,0.00,VWS V14.01,2013-07-09 06:29:00,
2013-07-08 23:30:00,52.0,45.0,29.96,NW,323,13.0,18.0,77,0.00,,---,0.00,VWS V14.01,2013-07-09 06:30:00,
2013-07-08 23:34:00,52.0,45.0,29.96,NW,313,13.0,17.0,77,0.00,,---,0.00,VWS V14.01,2013-07-09 06:34:00,
2013-07-08 23:35:00,52.0,45.0,29.96,NNW,327,13.0,18.0,77,0.00,,---,0.00,VWS V14.01,2013-07-09 06:35:00,
2013-07-08 23:40:00,52.0,45.0,29.96,NW,321,16.0,20.0,77,0.00,,---,0.00,VWS V14.01,2013-07-09 06:40:00,
2013-07-08 23:45:00,52.0,45.4,29.96,North,360,10.0,20.0,78,0.00,,---,0.00,VWS V14.01,2013-07-09 06:45:00,
2013-07-08 23:50:00,51.9,45.3,29.96,NNW,333,14.0,20.0,78,0.00,,---,0.00,VWS V14.01,2013-07-09 06:50:00,
2013-07-08 23:55:00,51.9,45.3,29.96,NW,319,16.0,20.0,78,0.00,,---,0.00,VWS V14.01,2013-07-09 06:55:00,